Location: Albuquerque Trailhead
(34.7934°N, 106.3736°W)
Time: 13:07:29
(UTC+00:00)

Lacrosse 5 rocket - Pass Details

Date: 20 June 2021
Orbit: 460 x 634 km, 57.0° (Epoch: 30 July)

Event Time Altitude Azimuth Distance (km) Brightness Sun altitude
Rises 04:26:50 0° 259° (WSW) 2,559 5.1 -20.5°
Reaches altitude 10° 04:29:41 10° 281° (WNW) 1,652 4.4 -20.8°
Maximum altitude 04:32:01 16° 321° (NW) 1,314 4.3 -21.1°
Drops below altitude 10° 04:34:19 10° 0° (N) 1,622 4.4 -21.4°
Sets 04:37:06 0° 24° (NNE) 2,488 5.1 -21.8°
